Vinton, IA

11:05 AM CST on November 19, 2017 (GMT -0600)
Vinton-Veterans Memorial

Weather History for KVTI - March, 2012

Change the Weather History Date:

Thursday, March 1, 2012

  Actual Average Record
Temperature  
Mean Temperature 36 °F -  
Max Temperature 39 °F 42 °F 70 °F (1992)
Min Temperature 33 °F 22 °F -34 °F (1962)
Degree Days  
Heating Degree Days 29    
Moisture  
Dew Point 30 °F    
Average Humidity 83    
Maximum Humidity 87    
Minimum Humidity 70    
Precipitation  
Precipitation 0.00 in - - ()
Sea Level Pressure  
Sea Level Pressure 29.78 in    
Wind  
Wind Speed 9 mph (West)    
Max Wind Speed 14 mph    
Max Gust Speed 20 mph    
Visibility 10 miles    
Events      
Averages and records for this station are not official NWS values.
T = Trace of Precipitation, MM = Missing Value Source: NWS Daily Summary

Daily Weather History Graph

Daily Weather History Graph

Search for Another Location

Airport or City:

Trip Planner

Search our weather history database for the weather conditions in past years. The results will help you decide how hot, cold, wet, or windy it might be!

Date:

Astronomy

Mar. 01, 2012 Rise Set
Actual Time 6:42 AM CST 5:58 PM CST
Civil Twilight 6:14 AM CST 6:26 PM CST
Nautical Twilight 5:42 AM CST 6:59 PM CST
Astronomical Twilight 5:09 AM CST 7:31 PM CST
Moon 11:13 AM CST (3/1) 1:46 AM CST (3/1)
Length of Visible Light 12h 12m
Length of Day
11h 16m
First Quarter, 57% of the Moon is Illuminated
Mar 1
First Quarter
Mar 8
Full
Mar 14
Last Quarter
Mar 22
New
Mar 30
First Quarter

Hourly Weather History & Observations

Time (CST) Temp. Windchill Dew Point Humidity Pressure Visibility Wind Dir Wind Speed Gust Speed Precip Events Conditions
12:15 AM 33.8 °F 24.3 °F 30.2 °F 87% 29.73 in 10.0 mi West 13.8 mph 19.6 mph N/A   Overcast
12:35 AM 33.8 °F 24.8 °F 30.2 °F 87% 29.74 in 10.0 mi West 12.7 mph 18.4 mph N/A   Overcast
12:55 AM 33.8 °F 25.3 °F 30.2 °F 87% 29.74 in 10.0 mi West 11.5 mph - N/A   Overcast
1:15 AM 33.8 °F 24.3 °F 30.2 °F 87% 29.75 in 10.0 mi West 13.8 mph - N/A   Overcast
1:35 AM 33.8 °F 25.3 °F 30.2 °F 87% 29.75 in 10.0 mi West 11.5 mph - N/A   Overcast
1:55 AM 33.8 °F 25.3 °F 30.2 °F 87% 29.76 in 10.0 mi West 11.5 mph 17.3 mph N/A   Overcast
2:15 AM 33.8 °F 24.8 °F 30.2 °F 87% 29.77 in 10.0 mi West 12.7 mph 17.3 mph N/A   Overcast
2:35 AM 33.8 °F 25.3 °F 30.2 °F 87% 29.77 in 10.0 mi West 11.5 mph - N/A   Overcast
2:55 AM 33.8 °F 25.3 °F 30.2 °F 87% 29.78 in 10.0 mi West 11.5 mph 17.3 mph N/A   Overcast
3:15 AM 33.8 °F 24.8 °F 30.2 °F 87% 29.77 in 10.0 mi WNW 12.7 mph - N/A   Overcast
3:35 AM 33.8 °F 25.3 °F 30.2 °F 87% 29.78 in 10.0 mi West 11.5 mph - N/A   Overcast
3:55 AM 33.8 °F 25.3 °F 30.2 °F 87% 29.78 in 10.0 mi WNW 11.5 mph 17.3 mph N/A   Overcast
4:15 AM 33.8 °F 25.8 °F 30.2 °F 87% 29.78 in 10.0 mi West 10.4 mph - N/A   Overcast
4:35 AM 33.8 °F 25.8 °F 30.2 °F 87% 29.78 in 10.0 mi West 10.4 mph - N/A   Overcast
4:55 AM 33.8 °F 26.4 °F 30.2 °F 87% 29.78 in 10.0 mi West 9.2 mph - N/A   Overcast
5:15 AM 33.8 °F 26.4 °F 30.2 °F 87% 29.80 in 10.0 mi West 9.2 mph - N/A   Overcast
5:35 AM 33.8 °F 26.4 °F 30.2 °F 87% 29.79 in 10.0 mi West 9.2 mph 16.1 mph N/A   Overcast
5:55 AM 33.8 °F 27.0 °F 30.2 °F 87% 29.79 in 10.0 mi West 8.1 mph - N/A   Overcast
6:15 AM 33.8 °F 27.0 °F 30.2 °F 87% 29.79 in 10.0 mi WNW 8.1 mph - N/A   Overcast
6:35 AM 33.8 °F 27.0 °F 30.2 °F 87% 29.79 in 10.0 mi West 8.1 mph - N/A   Overcast
6:55 AM 33.8 °F 29.6 °F 30.2 °F 87% 29.79 in 10.0 mi West 4.6 mph - N/A   Overcast
7:15 AM 33.8 °F 27.7 °F 30.2 °F 87% 29.80 in 10.0 mi West 6.9 mph - N/A   Overcast
7:35 AM 33.8 °F 29.6 °F 30.2 °F 87% 29.81 in 10.0 mi West 4.6 mph - N/A   Overcast
7:55 AM 33.8 °F 30.8 °F 30.2 °F 87% 29.81 in 10.0 mi WSW 3.5 mph - N/A   Overcast
8:15 AM 33.8 °F 29.6 °F 30.2 °F 87% 29.83 in 10.0 mi SW 4.6 mph - N/A   Overcast
8:35 AM 33.8 °F 28.6 °F 30.2 °F 87% 29.84 in 10.0 mi WSW 5.8 mph - N/A   Overcast
8:55 AM 33.8 °F 29.6 °F 30.2 °F 87% 29.84 in 10.0 mi WSW 4.6 mph - N/A   Overcast
9:15 AM 33.8 °F 28.6 °F 30.2 °F 87% 29.84 in 10.0 mi WSW 5.8 mph - N/A   Overcast
9:35 AM 33.8 °F 28.6 °F 30.2 °F 87% 29.84 in 10.0 mi West 5.8 mph - N/A   Overcast
9:55 AM 33.8 °F 28.6 °F 28.4 °F 81% 29.85 in 10.0 mi SW 5.8 mph - N/A   Overcast
10:35 AM 33.8 °F 27.7 °F 30.2 °F 87% 29.85 in 10.0 mi SW 6.9 mph - N/A   Overcast
10:55 AM 35.6 °F 29.9 °F 28.4 °F 75% 29.85 in 10.0 mi WSW 6.9 mph - N/A   Overcast
11:15 AM 35.6 °F 32.8 °F 30.2 °F 81% 29.85 in 10.0 mi West 3.5 mph - N/A   Overcast
11:35 AM 35.6 °F 31.7 °F 30.2 °F 81% 29.85 in 10.0 mi West 4.6 mph - N/A   Overcast
11:55 AM 35.6 °F 31.7 °F 30.2 °F 81% 29.84 in 10.0 mi West 4.6 mph - N/A   Overcast
12:15 PM 35.6 °F 30.7 °F 30.2 °F 81% 29.83 in 10.0 mi WNW 5.8 mph - N/A   Overcast
12:55 PM 35.6 °F 31.7 °F 28.4 °F 75% 29.79 in 10.0 mi West 4.6 mph - N/A   Overcast
1:15 PM 35.6 °F - 28.4 °F 75% 29.78 in 10.0 mi Calm Calm - N/A   Overcast
1:35 PM 35.6 °F - 28.4 °F 75% 29.77 in 10.0 mi Calm Calm - N/A   Overcast
1:55 PM 35.6 °F - 28.4 °F 75% 29.77 in 10.0 mi Calm Calm - N/A   Overcast
2:15 PM 37.4 °F - 30.2 °F 75% 29.76 in 10.0 mi Calm Calm - N/A   Overcast
2:35 PM 37.4 °F 34.9 °F 30.2 °F 75% 29.75 in 10.0 mi NE 3.5 mph - N/A   Mostly Cloudy
2:55 PM 39.2 °F 37.0 °F 30.2 °F 70% 29.75 in 10.0 mi East 3.5 mph - N/A   Mostly Cloudy
3:15 PM 37.4 °F 32.8 °F 30.2 °F 75% 29.75 in 10.0 mi ENE 5.8 mph - N/A   Mostly Cloudy
3:35 PM 37.4 °F 33.8 °F 30.2 °F 75% 29.75 in 10.0 mi ENE 4.6 mph - N/A   Scattered Clouds
3:55 PM 37.4 °F 32.1 °F 30.2 °F 75% 29.74 in 10.0 mi NNE 6.9 mph - N/A   Scattered Clouds
4:15 PM 37.4 °F 31.4 °F 32.0 °F 81% 29.73 in 10.0 mi NE 8.1 mph - N/A   Scattered Clouds
4:55 PM 37.4 °F 29.8 °F 32.0 °F 81% 29.72 in 10.0 mi NNE 11.5 mph - N/A   Mostly Cloudy
5:35 PM 35.6 °F 27.5 °F 30.2 °F 81% 29.72 in 10.0 mi NE 11.5 mph - N/A   Overcast
5:55 PM 35.6 °F 31.7 °F 32.0 °F 87% 29.73 in 10.0 mi ENE 4.6 mph - N/A   Overcast
6:15 PM 33.8 °F 30.8 °F 30.2 °F 87% 29.75 in 10.0 mi East 3.5 mph - N/A   Overcast
6:35 PM 33.8 °F 30.8 °F 30.2 °F 87% 29.76 in 10.0 mi East 3.5 mph - N/A   Overcast
6:55 PM 33.8 °F 29.6 °F 30.2 °F 87% 29.76 in 10.0 mi NE 4.6 mph - N/A   Overcast
7:15 PM 33.8 °F 30.8 °F 30.2 °F 87% 29.76 in 10.0 mi NE 3.5 mph - N/A   Overcast
7:35 PM 33.8 °F 27.7 °F 30.2 °F 87% 29.76 in 10.0 mi NE 6.9 mph - N/A   Overcast
7:55 PM 33.8 °F 27.7 °F 30.2 °F 87% 29.76 in 10.0 mi NE 6.9 mph - N/A   Overcast
8:15 PM 33.8 °F 29.6 °F 30.2 °F 87% 29.76 in 10.0 mi NE 4.6 mph - N/A   Overcast
8:35 PM 33.8 °F 27.7 °F 30.2 °F 87% 29.76 in 10.0 mi NE 6.9 mph - N/A   Overcast
8:55 PM 33.8 °F 28.6 °F 30.2 °F 87% 29.76 in 10.0 mi NE 5.8 mph - N/A   Overcast
9:15 PM 33.8 °F 28.6 °F 30.2 °F 87% 29.76 in 10.0 mi NE 5.8 mph - N/A   Overcast
9:35 PM 33.8 °F 28.6 °F 30.2 °F 87% 29.76 in 10.0 mi NE 5.8 mph - N/A   Overcast
9:55 PM 33.8 °F 27.7 °F 30.2 °F 87% 29.76 in 10.0 mi NNE 6.9 mph - N/A   Overcast
10:15 PM 33.8 °F 27.7 °F 30.2 °F 87% 29.76 in 10.0 mi NNE 6.9 mph - N/A   Overcast
10:35 PM 33.8 °F 27.7 °F 30.2 °F 87% 29.76 in 10.0 mi NE 6.9 mph - N/A   Overcast
10:55 PM 33.8 °F 28.6 °F 30.2 °F 87% 29.75 in 10.0 mi NNE 5.8 mph - N/A   Overcast
11:15 PM 33.8 °F 26.4 °F 32.0 °F 93% 29.74 in 10.0 mi NNE 9.2 mph - N/A   Overcast
11:35 PM 32.0 °F 24.2 °F 28.4 °F 87% 29.73 in 10.0 mi NNE 9.2 mph - N/A   Scattered Clouds
11:55 PM 32.0 °F 24.8 °F 28.4 °F 87% 29.72 in 10.0 mi NNE 8.1 mph - N/A   Clear